Location: Eastview
(35.0756°N, 88.5453°W)
Time: 20:31:49
(UTC+00:00)

Cosmos 1862 - Pass Details

Date: 22 November 2019
Orbit: 538 x 557 km, 82.5° (Epoch: 14 December)

Event Time Altitude Azimuth Distance (km) Brightness Sun altitude
Rises 23:26:05 0° 351° (N) 2,709 6.8 -8.7°
Reaches altitude 10° 23:28:15 10° 349° (N) 1,815 5.9 -9.1°
Maximum altitude 23:32:13 73° 265° (W) 574 3.6 -9.9°
Drops below altitude 10° 23:36:12 10° 181° (S) 1,813 6.2 -10.6°
Sets 23:38:21 0° 179° (S) 2,705 7.1 -11.1°
